Terminal Aerodrome Forecast
Issued by NWS

Home | Current Version | Previous Version | Graphics & Text | Print | Product List | Glossary On
Versions: 1 2 3 4 5 6 7 8 9 10 11 12 13 14 15 16 17 18 19 20 21 22 23 24 25 26 27 28 29 30 31 32 33 34 35 36 37 38 39 40 41 42 43
450
FTUS43 KGRB 081738
TAFRHI
TAF
KRHI 081738Z 0818/0918 36010G15KT P6SM OVC013
      TEMPO 0819/0823 2SM -SHSN
     FM082300 34012KT 4SM -SN BR OVC011
      TEMPO 0823/0903 1SM -SN
     FM090300 33009KT 4SM -SN BR OVC015
     FM091400 34011G16KT 4SM -SN BR OVC020
      TEMPO 0914/0918 2SM -SHSN OVC012=

USA.gov is the U.S. government's official web portal to all federal, state and local government web resources and services.